2023-059A (56367 NORAD) Tracking and Keplerian Element Data

This shows tracking and keplerian element data for the satellite.

Feedback or suggestion? Click here.




ElementValue
Catalog56367
Name2023-059A
Epoch Orbit33
Epoch Day123.12578473
Epoch Year2023
RAAN16.5904
Inclination8.5979
Eccentricity0.1877589
Argument of Perigee192.3682
Mean Anonmoly162.2961
Mean Motion7.2626747
Decay Rate4.8E-07
L11 56367U 23059A 23123.12578473 .00000048 00000+0 00000+0 0 9994
L22 56367 8.5979 16.5904 1877589 192.3682 162.2961 7.26267470 332



Live tracking and technical data element details for 2023-059A (NORAD 56367). 2023-059A can be tracked NOW for your location showing map with azimuth and elevation plus other details from your city location.







IsCatalogInMostPopularTable: catalog: 56367, numindb: 3
Update: records affected: 1



GetName: 56367 2023-059A

Hit Count: updated at: Wed, 07 Jun 2023 09:33:51 GMT